Weather reports worldwide

Advertisment
Edinburgh/Gogarbank, United Kingdom (3166): temperature & dewpoint: 15.01.2020 23:00:00 - 21.01.2020 23:00:00 (GMT)Edinburgh/Gogarbank, United Kingdom (3166): temperature -20cm & temperature -100cm: 15.01.2020 23:00:00 - 21.01.2020 23:00:00 (GMT)Edinburgh/Gogarbank, United Kingdom (3166): wind speed & gusts: 15.01.2020 23:00:00 - 21.01.2020 23:00:00 (GMT)Edinburgh/Gogarbank, United Kingdom (3166): wind direction: 15.01.2020 23:00:00 - 21.01.2020 23:00:00 (GMT)Edinburgh/Gogarbank, United Kingdom (3166): reduced air pressure: 15.01.2020 23:00:00 - 21.01.2020 23:00:00 (GMT)Edinburgh/Gogarbank, United Kingdom (3166): visibility: 15.01.2020 23:00:00 - 21.01.2020 23:00:00 (GMT)Edinburgh/Gogarbank, United Kingdom (3166): sunshine duration: 15.01.2020 23:00:00 - 21.01.2020 23:00:00 (GMT)Edinburgh/Gogarbank, United Kingdom (3166): precipitation: 15.01.2020 23:00:00 - 21.01.2020 23:00:00 (GMT)
Date & Time tt [°C] td [°C] tt -20cm [°C] tt -100cm [°C] ff [km/h] ff [kn] fx [km/h] fx [kn] dd ppp [hPa] vv [km] sd [min] rr [mm]
21.01.2020 23:00:00 9,4 8,2 - - 18 10 - - W 1037,4 50 0 0,0
21.01.2020 22:00:00 9,3 8,1 - - 16 9 - - WSW 1037,0 50 0 0,0
21.01.2020 21:00:00 9,5 8,3 - - 16 9 - - WSW 1037,4 45 0 0,0
21.01.2020 20:00:00 9,4 8,5 - - 15 8 - - WSW 1037,7 25 0 0,0
21.01.2020 19:00:00 9,4 8,3 - - 15 8 - - WSW 1037,4 21 0 0,0
21.01.2020 18:00:00 9,3 8,4 - - 16 9 - - WSW 1036,8 22 0 0,0
21.01.2020 17:00:00 9,3 8,2 - - 21 11 - - WSW 1036,5 35 0 0,0
21.01.2020 16:00:00 9,4 8,2 - - 16 9 - - WSW 1037,0 20 0 0,0
21.01.2020 15:00:00 9,7 8,1 - - 16 9 - - WSW 1036,8 50 0 0,0
21.01.2020 14:00:00 9,8 8,1 - - 22 12 - - WSW 1037,1 50 0 0,0
21.01.2020 13:00:00 10,1 8,2 - - 22 12 - - W 1037,5 50 0 0,0
21.01.2020 12:00:00 9,7 8,4 - - 16 9 - - WSW 1038,7 50 0 0,0
21.01.2020 11:00:00 9,0 7,8 - - 22 12 - - WSW 1038,7 18 0 0,0
21.01.2020 10:00:00 9,0 7,5 - - 24 13 - - SW 1037,9 50 0 0,0
21.01.2020 09:00:00 8,6 7,1 5,7 6,7 18 10 - - SW 1038,1 45 0 0,0
21.01.2020 08:00:00 8,5 7,0 - - 18 10 - - SW 1038,3 40 0 0,0
21.01.2020 07:00:00 8,4 6,7 - - 21 11 - - WSW 1038,3 30 0 0,0
21.01.2020 06:00:00 8,4 6,6 - - 16 9 - - SW 1038,3 30 0 0,0
21.01.2020 05:00:00 8,2 6,7 - - 22 12 - - WSW 1038,1 18 0 0,0
21.01.2020 04:00:00 8,0 6,3 - - 22 12 - - WSW 1038,0 17 0 0,0
21.01.2020 03:00:00 8,0 5,9 - - 26 14 - - WSW 1038,2 17 0 0,0
21.01.2020 02:00:00 8,0 5,6 - - 22 12 - - WSW 1038,8 18 0 0,0
21.01.2020 01:00:00 7,9 5,2 - - 18 10 - - W 1039,1 18 0 0,0
21.01.2020 00:00:00 8,2 4,8 - - 24 13 - - WSW 1039,5 19 - 0,0
20.01.2020 23:00:00 7,9 4,7 - - 22 12 - - W 1039,5 20 0 0,0
20.01.2020 22:00:00 8,0 4,7 - - 26 14 - - WSW 1039,5 22 0 0,0
20.01.2020 21:00:00 7,7 4,6 - - 24 13 - - WSW 1039,5 18 0 0,0
20.01.2020 20:00:00 7,8 4,3 - - 26 14 48 26 WSW 1040,1 21 0 0,0
20.01.2020 19:00:00 7,5 4,2 - - 26 14 - - SW 1040,2 20 0 0,0
20.01.2020 18:00:00 7,4 4,0 - - 21 11 - - SW 1040,6 21 0 0,0
20.01.2020 17:00:00 7,2 3,9 - - 22 12 - - WSW 1040,8 20 0 0,0
20.01.2020 16:00:00 7,4 3,8 - - 22 12 - - WSW 1040,8 19 0 0,0
20.01.2020 15:00:00 7,4 3,6 - - 21 11 - - SW 1040,8 21 0 0,0
20.01.2020 14:00:00 7,6 3,8 - - 22 12 - - WSW 1041,0 21 0 0,0
20.01.2020 13:00:00 7,8 4,0 - - 21 11 - - WSW 1041,3 23 0 0,0
20.01.2020 12:00:00 7,5 4,1 - - 21 11 - - SW 1042,0 23 0 0,0
20.01.2020 11:00:00 7,2 3,9 - - 15 8 - - SW 1042,7 20 0 0,0
20.01.2020 10:00:00 6,8 3,7 - - 11 6 - - SW 1042,8 24 0 0,0
20.01.2020 09:00:00 6,5 3,6 5,5 6,7 18 10 - - SW 1042,4 23 0 0,0
20.01.2020 08:00:00 6,9 3,7 - - 22 12 - - WSW 1042,5 26 0 0,0
20.01.2020 07:00:00 6,7 3,5 - - 18 10 - - SW 1042,1 24 0 0,0
20.01.2020 06:00:00 6,5 3,3 - - 24 13 - - SW 1042,1 23 0 0,0
20.01.2020 05:00:00 6,5 3,5 - - 21 11 - - WSW 1042,0 25 0 0,0
20.01.2020 04:00:00 6,2 3,3 - - 22 12 - - WSW 1042,0 22 0 0,0
20.01.2020 03:00:00 6,0 3,0 - - 26 14 - - WSW 1042,1 29 0 0,0
20.01.2020 02:00:00 5,5 2,6 - - 24 13 - - WSW 1042,0 25 0 0,0
20.01.2020 01:00:00 5,7 2,2 - - 22 12 - - WSW 1042,3 29 0 0,0
20.01.2020 00:00:00 5,1 1,0 - - 24 13 - - WSW 1042,5 29 - 0,0
19.01.2020 23:00:00 5,5 0,9 - - 26 14 - - WSW 1042,3 35 0 0,0
19.01.2020 22:00:00 4,7 -0,1 - - 18 10 - - SW 1042,4 45 0 0,0
19.01.2020 21:00:00 5,3 -1,4 - - 28 15 - - WSW 1042,2 50 0 0,0
19.01.2020 20:00:00 5,2 -1,4 - - 21 11 - - WSW 1042,4 50 0 0,0
19.01.2020 19:00:00 5,1 -1,4 - - 21 11 - - SW 1042,7 50 0 0,0
19.01.2020 18:00:00 5,1 -1,0 - - 22 12 - - WSW 1042,3 50 0 0,0
19.01.2020 17:00:00 5,1 0,3 - - 22 12 - - WSW 1042,5 40 0 0,0
19.01.2020 16:00:00 5,7 0,9 - - 28 15 - - WSW 1042,0 50 0 0,0
19.01.2020 15:00:00 5,9 0,6 - - 22 12 - - WSW 1041,9 50 0 0,0
19.01.2020 14:00:00 6,1 1,2 - - 21 11 - - WSW 1042,1 45 0 0,0
19.01.2020 13:00:00 6,3 2,2 - - 21 11 - - SW 1042,5 45 0 0,0
19.01.2020 12:00:00 5,7 3,2 - - 18 10 - - SW 1042,7 40 0 0,0
19.01.2020 11:00:00 5,5 2,7 - - 13 7 - - WSW 1042,7 35 54 0,0
19.01.2020 10:00:00 4,6 2,3 - - 13 7 - - SW 1042,2 40 18 0,0
19.01.2020 09:00:00 4,2 2,3 5,7 6,7 15 8 - - SW 1041,8 30 0 0,0
19.01.2020 08:00:00 4,0 2,2 - - 15 8 - - SW 1041,6 30 0 0,0
19.01.2020 07:00:00 3,5 1,4 - - 13 7 - - WSW 1041,1 28 0 0,0
19.01.2020 06:00:00 2,7 0,8 - - 13 7 - - SW 1040,0 29 0 0,0
19.01.2020 05:00:00 2,4 0,7 - - 13 7 - - SW 1039,2 26 0 0,0
19.01.2020 04:00:00 2,9 0,7 - - 15 8 - - SW 1038,7 26 0 0,0
19.01.2020 03:00:00 2,2 0,2 - - 9 5 - - WSW 1038,3 23 0 0,0
19.01.2020 02:00:00 3,0 0,3 - - 13 7 - - SW 1037,8 22 0 0,0
19.01.2020 01:00:00 2,4 -0,5 - - 8 4 - - S 1037,8 22 0 0,0
19.01.2020 00:00:00 2,6 0,2 - - 13 7 - - SW 1036,8 23 - 0,0
18.01.2020 23:00:00 2,4 -0,1 - - 13 7 - - SSW 1035,8 24 0 0,0
18.01.2020 22:00:00 2,8 0,1 - - 13 7 - - WSW 1034,7 20 0 0,0
18.01.2020 21:00:00 3,0 0,2 - - 15 8 - - SW 1033,9 21 0 0,0
18.01.2020 20:00:00 3,1 0,2 - - 13 7 - - SW 1033,2 27 0 0,0
18.01.2020 19:00:00 3,7 0,6 - - 16 9 - - WSW 1032,0 30 0 0,0
18.01.2020 18:00:00 3,9 0,7 - - 16 9 - - WSW 1030,9 30 0 0,0
18.01.2020 17:00:00 4,0 0,8 - - 15 8 - - SW 1029,5 35 0 0,0
18.01.2020 16:00:00 4,7 0,6 - - 16 9 - - SW 1028,4 40 0 0,0
18.01.2020 15:00:00 5,2 0,8 - - 13 7 - - WSW 1027,3 45 24 0,0
18.01.2020 14:00:00 5,9 0,8 - - 21 11 - - W 1025,7 50 54 0,0
18.01.2020 13:00:00 5,4 1,3 - - 22 12 - - WSW 1025,1 40 54 0,0
18.01.2020 12:00:00 4,8 1,2 - - 21 11 - - W 1024,6 50 60 0,0
18.01.2020 11:00:00 4,0 0,9 - - 24 13 - - WSW 1023,8 35 60 0,0
18.01.2020 10:00:00 3,1 0,5 - - 21 11 - - WSW 1022,6 50 24 0,0
18.01.2020 09:00:00 2,7 0,6 5,7 6,9 24 13 - - WSW 1021,7 45 0 0,0
18.01.2020 08:00:00 2,7 0,5 - - 22 12 - - WSW 1020,9 45 0 0,0
18.01.2020 07:00:00 2,4 0,1 - - 22 12 - - WSW 1019,7 30 0 0,0
18.01.2020 06:00:00 2,3 -0,1 - - 21 11 - - WSW 1018,9 35 0 0,0
18.01.2020 05:00:00 2,2 -0,2 - - 22 12 - - WSW 1017,7 45 0 0,0
18.01.2020 04:00:00 2,2 -0,6 - - 18 10 - - WSW 1017,2 40 0 0,0
18.01.2020 03:00:00 2,4 -0,5 - - 16 9 - - SW 1016,5 27 0 0,0
18.01.2020 02:00:00 2,9 0,0 - - 21 11 - - WSW 1015,4 24 0 0,0
18.01.2020 01:00:00 2,9 0,1 - - 22 12 - - WSW 1014,3 20 0 0,0
18.01.2020 00:00:00 3,1 0,0 - - 22 12 - - WSW 1013,5 22 - 0,0
17.01.2020 23:00:00 3,3 0,3 - - 21 11 - - SW 1012,2 23 0 0,0
17.01.2020 22:00:00 3,3 0,7 - - 18 10 - - SW 1011,0 22 0 0,0
17.01.2020 21:00:00 4,0 1,6 - - 18 10 - - WSW 1010,2 22 0 0,0
17.01.2020 20:00:00 4,2 1,6 - - 21 11 - - WSW 1009,4 21 0 0,0
17.01.2020 19:00:00 4,5 1,8 - - 21 11 - - WSW 1008,4 18 0 0,0
17.01.2020 18:00:00 4,3 1,9 - - 18 10 - - WSW 1007,6 25 0 0,0
17.01.2020 17:00:00 4,7 2,3 - - 21 11 - - SW 1006,7 27 0 0,0
17.01.2020 16:00:00 5,3 2,5 - - 18 10 - - WSW 1005,8 35 0 0,0
17.01.2020 15:00:00 5,8 2,5 - - 16 9 - - WSW 1005,3 20 0 0,0
17.01.2020 14:00:00 5,9 2,0 - - 22 12 - - WSW 1004,7 30 36 0,0
17.01.2020 13:00:00 5,7 1,9 - - 22 12 - - SW 1004,3 20 42 0,0
17.01.2020 12:00:00 4,8 1,1 - - 24 13 - - SW 1004,3 22 18 0,0
17.01.2020 11:00:00 4,1 1,1 - - 21 11 - - SW 1004,2 25 0 0,0
17.01.2020 10:00:00 3,7 0,9 - - 15 8 - - SW 1003,8 28 0 0,0
17.01.2020 09:00:00 3,2 0,7 6,0 7,0 9 5 - - SW 1003,3 22 0 0,0
17.01.2020 08:00:00 3,4 0,5 - - 11 6 - - SW 1003,0 28 0 0,0
17.01.2020 07:00:00 3,0 0,8 - - 13 7 - - SW 1002,4 26 0 0,0
17.01.2020 06:00:00 4,1 1,1 - - 13 7 - - SW 1002,0 28 0 0,0
17.01.2020 05:00:00 4,4 1,2 - - 13 7 - - SSW 1001,5 40 0 0,0
17.01.2020 04:00:00 4,8 1,5 - - 18 10 - - SW 1001,3 35 0 0,0
17.01.2020 03:00:00 5,8 1,9 - - 24 13 - - SW 1000,7 40 0 0,0
17.01.2020 02:00:00 6,0 2,2 - - 24 13 46 25 SW 1000,3 40 0 0,0
17.01.2020 01:00:00 6,5 2,2 - - 31 17 50 27 SW 1000,1 50 0 0,0
17.01.2020 00:00:00 6,7 2,6 - - 29 16 48 26 SW 999,3 35 - 0,0
16.01.2020 23:00:00 6,7 3,0 - - 29 16 52 28 SW 998,3 50 0 0,0
16.01.2020 22:00:00 7,2 3,6 - - 31 17 50 27 SW 997,6 50 0 0,0
16.01.2020 21:00:00 7,7 4,7 - - 24 13 48 26 SW 996,4 50 0 0,0
16.01.2020 20:00:00 10,0 7,3 - - 26 14 46 25 SW 994,7 30 0 1,2
16.01.2020 19:00:00 10,3 8,2 - - 28 15 48 26 SSW 993,2 13 0 0,2
16.01.2020 18:00:00 9,8 7,6 - - 24 13 54 29 S 993,0 12 0 0,6
16.01.2020 17:00:00 9,1 7,1 - - 34 18 63 34 S 993,0 4,8 0 2,0
16.01.2020 16:00:00 8,7 6,2 - - 16 9 - - SSE 994,2 13 0 0,6
16.01.2020 15:00:00 8,1 5,4 - - 18 10 - - SE 996,6 11 0 0,2
16.01.2020 14:00:00 8,1 3,7 - - 15 8 - - ESE 998,9 29 0 0,0
16.01.2020 13:00:00 8,5 3,9 - - 22 12 - - SE 1001,5 27 0 0,0
16.01.2020 12:00:00 8,7 4,0 - - 15 8 - - S 1003,6 35 0 0,0
16.01.2020 11:00:00 8,9 4,1 - - 24 13 46 25 S 1004,4 30 0 0,0
16.01.2020 10:00:00 8,7 4,5 - - 24 13 50 27 S 1004,6 21 0 0,0
16.01.2020 09:00:00 8,3 4,4 5,7 7,0 22 12 - - SSW 1005,0 29 0 0,0
16.01.2020 08:00:00 8,2 4,3 - - 18 10 - - SSW 1005,0 30 0 0,0
16.01.2020 07:00:00 7,9 4,7 - - 9 5 - - SSW 1005,7 26 0 0,0
16.01.2020 06:00:00 6,6 3,6 - - 11 6 - - SW 1006,7 19 0 0,0
16.01.2020 05:00:00 6,8 2,9 - - 24 13 - - SW 1007,0 23 0 0,0
16.01.2020 04:00:00 6,4 2,8 - - 26 14 48 26 SW 1006,7 27 0 0,0
16.01.2020 03:00:00 6,3 2,2 - - 31 17 52 28 SW 1007,0 30 0 0,0
16.01.2020 02:00:00 5,4 1,6 - - 26 14 - - SW 1007,1 35 0 0,0
16.01.2020 01:00:00 5,0 1,5 - - 24 13 50 27 SW 1006,6 29 0 0,0
16.01.2020 00:00:00 5,4 1,9 - - 28 15 54 29 SW 1005,5 28 - 0,0
15.01.2020 23:00:00 5,5 1,7 - - 26 14 52 28 SW 1003,9 26 0 0,0

tt = temperature
td = dewpoint
tt -20cm = temperature -20cm
tt -100cm = temperature -100cm
ff = wind speed
fx = gusts
dd = wind direction
ppp = reduced air pressure
vv = visibility
sd = sunshine duration
rr = precipitation

Next stations